Location: Le Petit-Vavre
(46.5081°N, 1.5239°E)
Time: 15:55:24
(UTC+00:00)

Cosmos 1470 Rocket - Pass Details

Date: 03 March 2021
Orbit: 603 x 634 km, 82.5° (Epoch: 17 April)

Event Time Altitude Azimuth Distance (km) Brightness Sun altitude
Rises 18:34:50 0° 178° (S) 2,916 7.0 -9.7°
Reaches altitude 10° 18:37:05 10° 175° (S) 2,012 6.1 -10.1°
Maximum altitude 18:41:29 62° 95° (E) 714 3.6 -10.9°
Drops below altitude 10° 18:45:54 10° 16° (NNE) 2,016 6.1 -11.6°
Sets 18:48:09 0° 13° (NNE) 2,923 6.9 -12.0°
